Location: Newark
(34.9500°N, 139.9667°E)
Time: 12:41:25
(UTC+00:00)

Transit 2A - Pass Details

Date: 14 December 2019
Orbit: 601 x 958 km, 66.7° (Epoch: 25 January)

Event Time Altitude Azimuth Distance (km) Brightness Sun altitude
Rises 21:16:47 0° 240° (WSW) 3,095 8.8 -5.1°
Reaches altitude 10° 21:19:44 10° 257° (WSW) 2,116 7.8 -4.6°
Maximum altitude 21:23:15 20° 305° (NW) 1,485 6.9 -3.9°
Drops below altitude 10° 21:26:37 10° 354° (N) 2,005 7.9 -3.3°
Sets 21:29:21 0° 11° (N) 2,883 8.8 -2.8°
